Location: Newark
(54.2500°N, 9.1833°E)
Time: 10:40:21
(UTC+00:00)

Transit 2A Rocket - All Passes

Search period start: 09 December 2019 00:00
Search period end: 19 December 2019 00:00
Orbit: 594 x 909 km, 66.7° (Epoch: 08 December)

Date Brightness Start Highest point End Pass type
(mag) Time Alt. Az. Time Alt. Az. Time Alt. Az.
09 Dec - 00:36:58 10° NW 00:41:18 59° SW 00:45:52 10° SSE night (unlit)
09 Dec - 02:22:15 10° W 02:23:00 10° WSW 02:23:45 10° WSW night (unlit)
09 Dec - 15:19:29 10° SSE 15:22:35 19° ESE 15:25:37 10° ENE daylight
09 Dec - 17:00:09 10° SW 17:04:37 81° NW 17:08:58 10° NE visible
09 Dec - 18:44:11 10° W 18:47:46 24° NNW 18:51:19 10° NNE visible
09 Dec - 20:29:00 10° NW 20:31:46 16° N 20:34:32 10° NE visible
09 Dec - 22:12:04 10° NNW 22:15:43 25° NNE 22:19:29 10° E night (unlit)
09 Dec - 23:54:24 10° NW 23:58:48 88° NE 00:03:26 10° SE night (unlit)
10 Dec - 01:37:51 10° WNW 01:40:48 17° WSW 01:43:51 10° SSW night (unlit)
10 Dec - 14:39:06 10° SE 14:40:23 11° ESE 14:41:39 10° E daylight
10 Dec - 16:17:41 10° SSW 16:22:06 65° SE 16:26:24 10° NE visible
10 Dec - 18:01:03 10° W 18:04:57 31° NNW 18:08:49 10° NNE visible
10 Dec - 19:45:58 10° NW 19:48:47 17° N 19:51:37 10° NE visible
10 Dec - 21:29:31 10° NNW 21:32:51 21° NNE 21:36:15 10° ENE night (unlit)
10 Dec - 23:11:53 10° NW 23:16:13 59° NE 23:20:45 10° ESE night (unlit)
11 Dec - 00:54:45 10° WNW 00:58:31 28° WSW 01:02:28 10° S night (unlit)
11 Dec - 15:35:30 10° S 15:39:41 40° ESE 15:43:44 10° NE visible
11 Dec - 17:18:01 10° WSW 17:22:13 42° NW 17:26:21 10° NE visible
11 Dec - 19:02:47 10° WNW 19:05:49 18° NNW 19:08:52 10° NNE visible
11 Dec - 20:46:54 10° NNW 20:49:55 18° NNE 20:53:01 10° ENE night (unlit)
11 Dec - 22:29:25 10° NW 22:33:33 41° NE 22:37:53 10° ESE night (unlit)
12 Dec - 00:11:57 10° NW 00:16:09 44° WSW 00:20:35 10° SSE night (unlit)
12 Dec - 14:53:40 10° S 14:57:20 25° ESE 15:00:53 10° ENE daylight
12 Dec - 16:35:10 10° SW 16:39:34 61° NW 16:43:51 10° NE visible
12 Dec - 18:19:33 10° WNW 18:22:54 21° NNW 18:26:15 10° NNE visible
12 Dec - 20:04:09 10° NW 20:06:58 17° N 20:09:49 10° NE visible
12 Dec - 21:46:56 10° NNW 21:50:48 30° NNE 21:54:50 10° E night (unlit)
12 Dec - 23:29:18 10° NW 23:33:41 70° SW 23:38:20 10° SSE night (unlit)
13 Dec - 01:13:32 10° W 01:15:30 13° WSW 01:17:31 10° SW night (unlit)
13 Dec - 14:12:26 10° SSE 14:15:04 16° ESE 14:17:40 10° ENE daylight
13 Dec - 15:52:32 10° SW 15:56:59 87° SE 16:01:20 10° NE visible
13 Dec - 17:36:21 10° W 17:40:02 26° NNW 17:43:42 10° NNE visible
13 Dec - 19:21:13 10° NW 19:23:59 16° N 19:26:47 10° NE visible
13 Dec - 21:04:25 10° NNW 21:07:59 24° NNE 21:11:38 10° E night (unlit)
13 Dec - 22:46:45 10° NW 22:51:10 77° NE 22:55:49 10° SE night (unlit)
14 Dec - 00:29:57 10° WNW 00:33:16 21° WSW 00:36:44 10° SSW night (unlit)
14 Dec - 15:10:09 10° SSW 15:14:30 55° SE 15:18:44 10° NE daylight
14 Dec - 16:53:14 10° W 16:57:15 34° NNW 17:01:13 10° NNE visible
14 Dec - 18:38:08 10° NW 18:41:00 17° N 18:43:54 10° NNE visible
14 Dec - 20:21:52 10° NNW 20:25:06 20° NNE 20:28:24 10° ENE visible
14 Dec - 22:04:15 10° NW 22:08:33 52° NE 22:13:04 10° ESE night (unlit)
14 Dec - 23:46:59 10° NW 23:50:58 32° WSW 23:55:09 10° S night (unlit)
15 Dec - 14:28:05 10° S 14:32:06 34° ESE 14:36:01 10° NE daylight
15 Dec - 16:10:17 10° WSW 16:14:32 47° NW 16:18:44 10° NE visible
15 Dec - 17:54:55 10° WNW 17:58:03 19° NNW 18:01:12 10° NNE visible
15 Dec - 19:39:12 10° NNW 19:42:09 17° N 19:45:10 10° NE visible
15 Dec - 21:21:47 10° NNW 21:25:51 37° NE 21:30:07 10° ESE night (unlit)
15 Dec - 23:04:15 10° NW 23:08:34 52° SW 23:13:08 10° SSE night (unlit)
16 Dec - 13:46:26 10° SSE 13:49:47 21° ESE 13:53:05 10° ENE daylight
16 Dec - 15:27:30 10° SW 15:31:54 71° NW 15:36:14 10° NE daylight
16 Dec - 17:11:42 10° WNW 17:15:09 22° NNW 17:18:37 10° NNE visible
16 Dec - 18:56:24 10° NW 18:59:11 16° N 19:02:01 10° NE visible
16 Dec - 20:39:18 10° NNW 20:43:06 28° NNE 20:47:01 10° E visible
16 Dec - 22:21:39 10° NW 22:26:05 81° SW 22:30:47 10° SE night (unlit)
17 Dec - 00:05:23 10° WNW 00:08:00 15° WSW 00:10:42 10° SW night (unlit)
17 Dec - 13:05:32 10° SE 13:07:34 13° ESE 13:09:34 10° E daylight
17 Dec - 14:44:57 10° SSW 14:49:22 75° SE 14:53:41 10° NE daylight
17 Dec - 16:28:31 10° W 16:32:18 28° NNW 16:36:05 10° NNE visible
17 Dec - 18:13:25 10° NW 18:16:12 16° N 18:19:01 10° NE visible
17 Dec - 19:56:47 10° NNW 20:00:15 22° NNE 20:03:48 10° ENE visible
17 Dec - 21:39:07 10° NW 21:43:31 67° NE 21:48:11 10° SE night (unlit)
17 Dec - 23:22:06 10° WNW 23:25:44 24° WSW 23:29:33 10° S night (unlit)
18 Dec - 14:02:40 10° SSW 14:06:55 46° ESE 14:11:03 10° NE daylight
18 Dec - 15:45:27 10° WSW 15:49:32 37° NW 15:53:36 10° NNE visible
18 Dec - 17:30:17 10° NW 17:33:14 18° N 17:36:12 10° NNE visible
18 Dec - 19:14:12 10° NNW 19:17:20 19° NNE 19:20:33 10° ENE visible
18 Dec - 20:56:38 10° NW 21:00:53 46° NE 21:05:21 10° ESE night (unlit)
18 Dec - 22:39:15 10° NW 22:43:24 38° WSW 22:47:47 10° S night (unlit)
